SCOUT B DEB, 2800

Orbit data source: Space-Track

SCOUT B DEB, 2800 is space debris in LEO originally from a launch on Thu, 04 Aug 1966 UTC launched from the Air Force Western Test Range (AFWTR). Debris objects in space refer to the collection of defunct objects orbiting the Earth. Examples of debris include non-operational satellites, rocket bodies, and fragments generated from explosions, collisions, or faulty payload assembly.

Loading next visibility...
Identifier
2800, 1966-070D
Orbit
LEO
Last TLE update
11 hours ago
Origin
Manufacturer
Unknown
Mission
Spacecraft
Bus & Motor
Unknown
Mass
Unknown
Launch date (UTC)
1966-08-04 (59 years ago)
Launch vehicle
Unknown
Launch site
Air Force Western Test Range (AFWTR)
Object type
Payload
Rocket body
Debris
Shape & HBR
Unknown
Radar Cross Section
Small (<0.1 m²)

Expand to show TLE details & history

TLE from 11 hours ago
0 SCOUT B DEB
1 02800U 66070D   25189.85081841  .00005018  00000-0  64606-3 0  9998
2 02800  81.4047 138.1029 1414910  83.0501 292.8936 12.37132127542208
Epoch: 2025-07-08T20:25Z
TLE epoch observation values (Epoch: 2025-07-08T20:25:10.71Z)
Latitude
-0°
Longitude
-95.23161°
Altitude
1,231.024 km
Speed
7.371 km/s
True Right ascension
09h 12m 24s
True Declination
0° 00' 00"
Sunlit
Object was in daylight at epoch
Visualization orbit readout
Latitude
-12.57896°
Longitude
86.36917°
Altitude
1,768.692 km
Speed
6.886 km/s
Apparent Right ascension
23h 37m 01s
Apparent Declination
-51° 31' 41"
Sunlit
Object is in full shadow
Visualization observer readout
Local Sidereal Time
19:08:55
Azimuth
142.862° SSE
Elevation
-18.428°
Doppler factor
1
Orbital elements
Apogee altitude
2,633.072 km
Perigee altitude
399.143 km
Semi-major axis
7,894.245 km
Eccentricity
0.14149
Inclination
81.4047°
RAAN
138.1029°
Arg. of periapsis
83.0501°
True anomaly
Unknown
Mean anomaly
292.8936°
Eccentric anomaly
Unknown
Mean motion
3.09441 °/min
Orbital period
116.34 mins
BSTAR
0.00064606
Loading maneuver chart data...
Loading SW <> Apogee altitude chart data...
Loading historical data...
Loading historical data...
Loading historical data...
Loading historical data...
Loading historical data...
Loading historical data...
Loading historical data...
Other satellites on launch #70 in the year 1966 (1966-08-04 UTC)

SCOUT B DEB Visibility forecast

Observer location: undefined°, undefined°

Span
Click to sort rows by Start time (UTC) header in descending order
Start Az.
Max El. time (UTC)
Max El. Az.
Max El.
End time (UTC)
End Az.
10 mins2025-07-09 08:36:29.808Z345.781° N2025-07-09 08:39:29.808Z297.413° NW43.994°2025-07-09 08:46:29.808Z177.29° S
7 mins2025-07-09 21:46:29.808Z208.332° SW2025-07-09 21:50:29.808Z288.972° WNW35.855°2025-07-09 21:53:29.808Z353.318° N
|